Location: Newark
(42.8481°N, 0.4872°E)
Time: 07:00:32
(UTC+00:00)

Transit 2A Rocket - Pass Details

Date: 27 October 2020
Orbit: 588 x 914 km, 66.7° (Epoch: 29 November)

Event Time Altitude Azimuth Distance (km) Brightness Sun altitude
Rises 11:28:43 0° 255° (WSW) 3,542 8.6 34.0°
Reaches altitude 10° 11:31:54 10° 270° (W) 2,592 7.8 34.1°
Maximum altitude 11:36:25 21° 319° (NW) 1,879 6.8 34.1°
Drops below altitude 10° 11:40:49 10° 7° (N) 2,509 7.3 34.1°
Sets 11:43:52 0° 24° (NNE) 3,397 7.9 34.1°
